Pittsburgh, PA

3:57 PM EST on December 09, 2019 (GMT -0500)
Pittsburgh International

Weather History for KPIT - November, 2019

Change the Weather History Date:

Saturday, November 16, 2019

  Actual Average Record
Temperature  
Mean Temperature 36 °F 43 °F  
Max Temperature 42 °F 51 °F 71 °F (1927)
Min Temperature 29 °F 35 °F 9 °F (1933)
Degree Days  
Heating Degree Days 30 22  
Month to date heating degree days 457 312  
Since 1 July heating degree days 768 813  
Cooling Degree Days 0 0  
Month to date cooling degree days 0 0  
Year to date cooling degree days 934 736  
Moisture  
Dew Point 18 °F    
Average Humidity 55    
Maximum Humidity 79    
Minimum Humidity 31    
Precipitation  
Precipitation 0.00 in 0.12 in 1.80 in (1985)
Month to date precipitation 0.73 1.67  
Year to date precipitation 48.01 33.78  
Snow  
Snow 0.00 in 0.10 in 1.00 in (1920)
Month to date snowfall 3.0 0.8  
Snow Depth 0.00 in    
Sea Level Pressure  
Sea Level Pressure 30.36 in    
Wind  
Wind Speed 7 mph ()    
Max Wind Speed 15 mph    
Max Gust Speed 21 mph    
Visibility 9.7 miles    
Events      
T = Trace of Precipitation, MM = Missing Value Source: Averaged Metar Reports

Daily Weather History Graph

Daily Weather History Graph

Search for Another Location

Airport or City:

Astronomy

Nov. 16, 2019 Rise Set
Actual Time 7:08 AM EST 5:02 PM EST
Civil Twilight 6:38 AM EST 5:32 PM EST
Nautical Twilight 6:05 AM EST 6:05 PM EST
Astronomical Twilight 5:33 AM EST 6:37 PM EST
Moon 8:33 PM EST (11/16) 11:00 AM EST (11/16)
Length of Visible Light 10h 53m
Length of Day
9h 54m
Waning Gibbous, 82% of the Moon is Illuminated
Nov 16
Waning Gibbous
Nov 19
Last Quarter
Nov 26
New
Dec 4
First Quarter
Dec 12
Full

Hourly Weather History & Observations

Time (EST) Temp. Windchill Dew Point Humidity Pressure Visibility Wind Dir Wind Speed Gust Speed Precip Events Conditions
12:22 AM 33.1 °F 26.9 °F 26.1 °F 75% 30.33 in 8.0 mi NNE 6.9 mph - N/A   Overcast
12:51 AM 32.0 °F 27.5 °F 26.1 °F 79% 30.38 in 8.0 mi NNE 4.6 mph - N/A   Overcast
1:51 AM 33.1 °F 28.7 °F 26.1 °F 75% 30.38 in 9.0 mi North 4.6 mph - N/A   Overcast
2:51 AM 32.0 °F 25.6 °F 26.1 °F 79% 30.36 in 8.0 mi North 6.9 mph - N/A   Overcast
3:51 AM 30.9 °F 22.8 °F 25.0 °F 79% 30.36 in 10.0 mi North 9.2 mph - N/A   Scattered Clouds
4:51 AM 30.9 °F 23.5 °F 24.1 °F 76% 30.36 in 10.0 mi North 8.1 mph - N/A   Clear
5:51 AM 30.0 °F 22.4 °F 24.1 °F 79% 30.38 in 10.0 mi NNE 8.1 mph - N/A   Partly Cloudy
6:51 AM 30.0 °F 23.2 °F 23.0 °F 75% 30.40 in 10.0 mi NE 6.9 mph - N/A   Partly Cloudy
7:51 AM 30.9 °F 24.3 °F 21.9 °F 69% 30.43 in 10.0 mi NE 6.9 mph - N/A   Partly Cloudy
8:51 AM 33.1 °F 27.7 °F 21.9 °F 64% 30.43 in 10.0 mi NE 5.8 mph - N/A   Partly Cloudy
9:51 AM 35.1 °F 26.9 °F 21.9 °F 59% 30.43 in 10.0 mi ENE 11.5 mph - N/A   Partly Cloudy
10:51 AM 36.0 °F 29.0 °F 21.9 °F 57% 30.42 in 10.0 mi East 9.2 mph - N/A   Partly Cloudy
11:51 AM 37.9 °F 31.5 °F 23.0 °F 55% 30.39 in 10.0 mi East 9.2 mph - N/A   Partly Cloudy
12:51 PM 39.9 °F 33.9 °F 21.9 °F 49% 30.36 in 10.0 mi ENE 9.2 mph 18.4 mph N/A   Partly Cloudy
1:51 PM 41.0 °F 34.7 °F 19.9 °F 43% 30.33 in 10.0 mi East 10.4 mph - N/A   Partly Cloudy
2:51 PM 41.0 °F 34.7 °F 18.0 °F 40% 30.32 in 10.0 mi East 10.4 mph - N/A   Partly Cloudy
3:51 PM 41.0 °F 36.4 °F 15.1 °F 35% 30.33 in 10.0 mi East 6.9 mph - N/A   Partly Cloudy
4:51 PM 39.0 °F 34.0 °F 10.9 °F 32% 30.33 in 10.0 mi East 6.9 mph - N/A   Partly Cloudy
5:51 PM 37.0 °F 31.6 °F 10.0 °F 33% 30.34 in 10.0 mi ENE 6.9 mph - N/A   Partly Cloudy
6:51 PM 35.1 °F 28.6 °F 9.0 °F 34% 30.34 in 10.0 mi East 8.1 mph - N/A   Partly Cloudy
7:51 PM 34.0 °F 26.6 °F 8.1 °F 34% 30.33 in 10.0 mi East 9.2 mph - N/A   Partly Cloudy
8:51 PM 33.1 °F 23.9 °F 7.0 °F 34% 30.32 in 10.0 mi East 12.7 mph - N/A   Partly Cloudy
9:51 PM 32.0 °F 23.6 °F 8.1 °F 37% 30.31 in 10.0 mi East 10.4 mph - N/A   Partly Cloudy
10:51 PM 30.9 °F 23.5 °F 9.0 °F 40% 30.29 in 10.0 mi East 8.1 mph - N/A   Clear
11:51 PM 30.0 °F 21.7 °F 9.0 °F 41% 30.27 in 10.0 mi East 9.2 mph - N/A   Clear